Location: Bieujac
(44.5398°N, 0.1549°W)
Time: 00:18:15
(UTC+00:00)

ADEOS Rocket - Pass Details

Date: 17 November 2019
Orbit: 858 x 1307 km, 98.7° (Epoch: 11 December)

Event Time Altitude Azimuth Distance (km) Brightness Sun altitude
Rises 05:49:50 0° 144° (SE) 4,286 7.2 -12.4°
Reaches altitude 10° 05:52:38 10° 139° (SE) 3,317 6.7 -11.9°
Maximum altitude 06:00:01 50° 68° (ENE) 1,578 4.5 -10.6°
Drops below altitude 10° 06:07:05 10° 355° (N) 3,174 5.5 -9.4°
Sets 06:09:43 0° 351° (N) 4,089 6.0 -9.0°
